FAB2019 SBBI-SBFL

Flight info

Callsign FAB2019
Flight time 0h 41m
Altitude FL120
Route SBBI NIRNI PONLU ILNUL SBFL
Aircraft E120/M-VD/A

Departure

Time 2026-04-17 00:31
Airport Bacacheri Airport (SBBI)

Arrival

Time 2026-04-17 01:12
Airport Hercílio Luz International Airport (SBFL)
Time Latitude Longitude Altitude Speed Heading
2026-04-17 00:22 -25.40019 -49.23637 3063 ft 0 kts 160°
2026-04-17 00:28 -25.40021 -49.23637 3063 ft 3 kts 152°
2026-04-17 00:28 -25.40046 -49.23540 3063 ft 10 kts 90°
2026-04-17 00:28 -25.40032 -49.23479 3063 ft 8 kts 71°
2026-04-17 00:28 -25.40027 -49.23463 3063 ft 0 kts 72°
2026-04-17 00:29 -25.40018 -49.23422 3063 ft 13 kts 95°
2026-04-17 00:29 -25.40050 -49.23396 3063 ft 0 kts 164°
2026-04-17 00:29 -25.40052 -49.23395 3063 ft 0 kts 160°
2026-04-17 00:30 -25.40135 -49.23359 3063 ft 53 kts 158°
2026-04-17 00:30 -25.40758 -49.23087 3063 ft 126 kts 158°
2026-04-17 00:31 -25.41544 -49.22746 3620 ft 124 kts 159°
2026-04-17 00:31 -25.42384 -49.22374 4036 ft 138 kts 158°
2026-04-17 00:31 -25.43333 -49.21945 4459 ft 157 kts 158°
2026-04-17 00:31 -25.44398 -49.21462 4867 ft 174 kts 158°
2026-04-17 00:32 -25.45557 -49.20937 5262 ft 187 kts 158°
2026-04-17 00:32 -25.46811 -49.20427 5647 ft 198 kts 165°
2026-04-17 00:32 -25.48193 -49.20164 6036 ft 206 kts 173°
2026-04-17 00:32 -25.49643 -49.20008 6419 ft 213 kts 175°
2026-04-17 00:33 -25.51140 -49.19867 6799 ft 219 kts 175°
2026-04-17 00:33 -25.52669 -49.19710 7177 ft 224 kts 174°
2026-04-17 00:33 -25.54228 -49.19531 7555 ft 227 kts 174°
2026-04-17 00:33 -25.55805 -49.19331 7932 ft 230 kts 173°
2026-04-17 00:34 -25.57400 -49.19115 8308 ft 233 kts 173°
2026-04-17 00:34 -25.59013 -49.18888 8685 ft 235 kts 173°
2026-04-17 00:34 -25.60641 -49.18651 9061 ft 237 kts 172°
2026-04-17 00:34 -25.62281 -49.18409 9437 ft 239 kts 172°
2026-04-17 00:35 -25.63933 -49.18162 9813 ft 241 kts 172°
2026-04-17 00:35 -25.65599 -49.17911 10189 ft 243 kts 172°
2026-04-17 00:35 -25.67278 -49.17657 10565 ft 245 kts 172°
2026-04-17 00:35 -25.68972 -49.17399 10941 ft 247 kts 172°
2026-04-17 00:36 -25.70679 -49.17140 11317 ft 249 kts 172°
2026-04-17 00:36 -25.72401 -49.16878 11693 ft 252 kts 172°
2026-04-17 00:36 -25.74162 -49.16610 11897 ft 262 kts 172°
2026-04-17 00:36 -25.76001 -49.16330 11981 ft 273 kts 172°
2026-04-17 00:37 -25.77898 -49.16040 11998 ft 277 kts 172°
2026-04-17 00:37 -25.79806 -49.15749 12000 ft 277 kts 172°
2026-04-17 00:37 -25.81714 -49.15458 12000 ft 278 kts 172°
2026-04-17 00:37 -25.83626 -49.15167 12000 ft 278 kts 172°
2026-04-17 00:38 -25.85540 -49.14874 12000 ft 278 kts 172°
2026-04-17 00:38 -25.87452 -49.14582 12000 ft 278 kts 172°
2026-04-17 00:38 -25.89366 -49.14290 12000 ft 278 kts 172°
2026-04-17 00:38 -25.91281 -49.13997 12000 ft 278 kts 172°
2026-04-17 00:39 -25.93194 -49.13705 12000 ft 278 kts 172°
2026-04-17 00:39 -25.95108 -49.13412 12000 ft 278 kts 172°
2026-04-17 00:39 -25.97024 -49.13119 12000 ft 278 kts 172°
2026-04-17 00:39 -25.98939 -49.12826 12000 ft 278 kts 172°
2026-04-17 00:40 -26.00854 -49.12533 12000 ft 278 kts 172°
2026-04-17 00:40 -26.02772 -49.12239 12000 ft 278 kts 172°
2026-04-17 00:40 -26.04687 -49.11945 12000 ft 278 kts 172°
2026-04-17 00:40 -26.06601 -49.11652 12000 ft 278 kts 172°
2026-04-17 00:41 -26.08517 -49.11358 12000 ft 278 kts 172°
2026-04-17 00:41 -26.10431 -49.11065 12000 ft 278 kts 172°
2026-04-17 00:41 -26.12346 -49.10771 12000 ft 278 kts 172°
2026-04-17 00:41 -26.14261 -49.10477 12000 ft 278 kts 172°
2026-04-17 00:42 -26.16174 -49.10183 12000 ft 278 kts 172°
2026-04-17 00:42 -26.18090 -49.09889 12000 ft 278 kts 172°
2026-04-17 00:42 -26.20004 -49.09595 12000 ft 278 kts 172°
2026-04-17 00:42 -26.21920 -49.09301 12000 ft 278 kts 172°
2026-04-17 00:43 -26.23833 -49.09007 12000 ft 278 kts 172°
2026-04-17 00:43 -26.25748 -49.08712 12000 ft 278 kts 172°
2026-04-17 00:43 -26.27662 -49.08418 12000 ft 278 kts 172°
2026-04-17 00:43 -26.29578 -49.08123 12000 ft 278 kts 172°
2026-04-17 00:44 -26.31493 -49.07828 12000 ft 278 kts 172°
2026-04-17 00:44 -26.33408 -49.07533 12000 ft 278 kts 172°
2026-04-17 00:44 -26.35322 -49.07238 12000 ft 278 kts 172°
2026-04-17 00:44 -26.37238 -49.06943 12000 ft 278 kts 172°
2026-04-17 00:45 -26.39152 -49.06648 12000 ft 278 kts 172°
2026-04-17 00:45 -26.41067 -49.06353 12000 ft 278 kts 172°
2026-04-17 00:45 -26.42981 -49.06057 12000 ft 278 kts 172°
2026-04-17 00:45 -26.44896 -49.05762 12000 ft 278 kts 172°
2026-04-17 00:46 -26.46810 -49.05467 12000 ft 278 kts 172°
2026-04-17 00:46 -26.48726 -49.05171 12000 ft 278 kts 172°
2026-04-17 00:46 -26.50640 -49.04870 12000 ft 278 kts 171°
2026-04-17 00:46 -26.52541 -49.04470 12000 ft 278 kts 168°
2026-04-17 00:47 -26.54423 -49.03982 12000 ft 278 kts 166°
2026-04-17 00:47 -26.56297 -49.03453 12000 ft 278 kts 165°
2026-04-17 00:47 -26.58167 -49.02912 12000 ft 278 kts 165°
2026-04-17 00:47 -26.60041 -49.02369 12000 ft 278 kts 165°
2026-04-17 00:48 -26.61911 -49.01835 12000 ft 278 kts 166°
2026-04-17 00:48 -26.63788 -49.01306 12000 ft 279 kts 166°
2026-04-17 00:48 -26.65666 -49.00785 12000 ft 279 kts 166°
2026-04-17 00:48 -26.67544 -49.00271 12000 ft 279 kts 166°
2026-04-17 00:49 -26.69424 -48.99760 12000 ft 279 kts 166°
2026-04-17 00:49 -26.71304 -48.99253 12000 ft 279 kts 166°
2026-04-17 00:49 -26.73182 -48.98741 11999 ft 279 kts 165°
2026-04-17 00:49 -26.75023 -48.98081 12000 ft 279 kts 160°
2026-04-17 00:50 -26.76824 -48.97292 12000 ft 279 kts 158°
2026-04-17 00:50 -26.78604 -48.96447 12000 ft 279 kts 156°
2026-04-17 00:50 -26.80377 -48.95582 12000 ft 279 kts 156°
2026-04-17 00:50 -26.82151 -48.94717 12000 ft 279 kts 156°
2026-04-17 00:51 -26.83928 -48.93860 12000 ft 279 kts 157°
2026-04-17 00:51 -26.85707 -48.93015 12000 ft 279 kts 157°
2026-04-17 00:51 -26.87492 -48.92178 12000 ft 279 kts 157°
2026-04-17 00:51 -26.89280 -48.91350 12000 ft 279 kts 158°
2026-04-17 00:52 -26.91069 -48.90528 12000 ft 279 kts 158°
2026-04-17 00:52 -26.92861 -48.89710 12000 ft 279 kts 158°
2026-04-17 00:52 -26.94654 -48.88894 12000 ft 279 kts 158°
2026-04-17 00:52 -26.96447 -48.88080 12000 ft 279 kts 158°
2026-04-17 00:53 -26.98239 -48.87266 12000 ft 279 kts 158°
2026-04-17 00:53 -27.00030 -48.86439 12000 ft 279 kts 157°
2026-04-17 00:53 -27.01806 -48.85603 11928 ft 277 kts 157°
2026-04-17 00:53 -27.03597 -48.84753 11555 ft 282 kts 157°
2026-04-17 00:54 -27.05391 -48.83899 11180 ft 277 kts 157°
2026-04-17 00:54 -27.07131 -48.83068 10805 ft 268 kts 157°
2026-04-17 00:54 -27.08820 -48.82262 10429 ft 261 kts 157°
2026-04-17 00:54 -27.10472 -48.81475 10054 ft 256 kts 157°
2026-04-17 00:55 -27.12097 -48.80701 9679 ft 252 kts 157°
2026-04-17 00:55 -27.13701 -48.79937 9304 ft 250 kts 157°
2026-04-17 00:55 -27.15289 -48.79182 8930 ft 247 kts 157°
2026-04-17 00:55 -27.16867 -48.78431 8555 ft 247 kts 157°
2026-04-17 00:56 -27.18447 -48.77680 8199 ft 247 kts 157°
2026-04-17 00:56 -27.20000 -48.76941 8066 ft 239 kts 157°
2026-04-17 00:56 -27.21509 -48.76223 8013 ft 234 kts 157°
2026-04-17 00:56 -27.23006 -48.75511 8002 ft 234 kts 157°
2026-04-17 00:57 -27.24501 -48.74800 8001 ft 234 kts 157°
2026-04-17 00:57 -27.25996 -48.74088 8000 ft 234 kts 157°
2026-04-17 00:57 -27.27511 -48.73412 8000 ft 234 kts 160°
2026-04-17 00:57 -27.29052 -48.72817 8000 ft 235 kts 162°
2026-04-17 00:58 -27.30602 -48.72256 8000 ft 235 kts 162°
2026-04-17 00:58 -27.32154 -48.71705 8000 ft 235 kts 162°
2026-04-17 00:58 -27.33708 -48.71151 8000 ft 235 kts 162°
2026-04-17 00:58 -27.35260 -48.70591 8000 ft 235 kts 162°
2026-04-17 00:59 -27.36809 -48.70025 8000 ft 235 kts 162°
2026-04-17 00:59 -27.38359 -48.69453 8000 ft 235 kts 162°
2026-04-17 00:59 -27.39907 -48.68879 8000 ft 235 kts 161°
2026-04-17 00:59 -27.41454 -48.68301 8000 ft 235 kts 161°
2026-04-17 01:00 -27.43003 -48.67721 8000 ft 235 kts 161°
2026-04-17 01:00 -27.44549 -48.67142 8000 ft 235 kts 161°
2026-04-17 01:00 -27.46095 -48.66561 8000 ft 235 kts 161°
2026-04-17 01:00 -27.47585 -48.65834 7990 ft 235 kts 147°
2026-04-17 01:01 -27.48793 -48.64583 7761 ft 243 kts 131°
2026-04-17 01:01 -27.49824 -48.63022 7391 ft 253 kts 124°
2026-04-17 01:01 -27.50759 -48.61360 7136 ft 247 kts 121°
2026-04-17 01:01 -27.51622 -48.59746 7004 ft 236 kts 121°
2026-04-17 01:02 -27.52455 -48.58195 6853 ft 229 kts 121°
2026-04-17 01:02 -27.53286 -48.56697 6703 ft 224 kts 122°
2026-04-17 01:02 -27.54116 -48.55230 6554 ft 221 kts 122°
2026-04-17 01:02 -27.54963 -48.53791 6405 ft 221 kts 125°
2026-04-17 01:03 -27.55838 -48.52363 6259 ft 223 kts 124°
2026-04-17 01:03 -27.56695 -48.50907 6112 ft 224 kts 123°
2026-04-17 01:03 -27.57546 -48.49441 5964 ft 224 kts 123°
2026-04-17 01:03 -27.58396 -48.47971 5817 ft 224 kts 123°
2026-04-17 01:04 -27.59247 -48.46497 5668 ft 224 kts 123°
2026-04-17 01:04 -27.60096 -48.45027 5521 ft 224 kts 123°
2026-04-17 01:04 -27.60943 -48.43557 5373 ft 224 kts 123°
2026-04-17 01:04 -27.61791 -48.42088 5224 ft 224 kts 123°
2026-04-17 01:05 -27.62635 -48.40623 5076 ft 223 kts 123°
2026-04-17 01:05 -27.63477 -48.39161 4928 ft 223 kts 123°
2026-04-17 01:05 -27.64317 -48.37702 4780 ft 222 kts 123°
2026-04-17 01:05 -27.65156 -48.36245 4632 ft 222 kts 123°
2026-04-17 01:06 -27.65992 -48.34793 4484 ft 221 kts 123°
2026-04-17 01:06 -27.66994 -48.33501 4321 ft 220 kts 142°
2026-04-17 01:06 -27.68374 -48.32814 4038 ft 220 kts 168°
2026-04-17 01:06 -27.69901 -48.32879 3671 ft 222 kts 193°
2026-04-17 01:07 -27.71328 -48.33481 3308 ft 217 kts 204°
2026-04-17 01:07 -27.72590 -48.34207 3033 ft 183 kts 208°
2026-04-17 01:07 -27.73631 -48.34864 2651 ft 166 kts 210°
2026-04-17 01:07 -27.74632 -48.35512 2276 ft 167 kts 210°
2026-04-17 01:08 -27.75462 -48.36359 2050 ft 158 kts 238°
2026-04-17 01:08 -27.75663 -48.37499 1956 ft 147 kts 275°
2026-04-17 01:08 -27.75323 -48.38603 1704 ft 152 kts 294°
2026-04-17 01:08 -27.74822 -48.39656 1434 ft 149 kts 300°
2026-04-17 01:09 -27.74310 -48.40633 1176 ft 140 kts 301°
2026-04-17 01:09 -27.73826 -48.41540 1003 ft 134 kts 301°
2026-04-17 01:09 -27.73347 -48.42454 777 ft 136 kts 301°
2026-04-17 01:09 -27.72852 -48.43338 593 ft 127 kts 302°
2026-04-17 01:10 -27.72403 -48.44161 432 ft 123 kts 302°
2026-04-17 01:10 -27.71951 -48.44998 289 ft 127 kts 302°
2026-04-17 01:10 -27.71480 -48.45837 184 ft 128 kts 302°
2026-04-17 01:10 -27.71019 -48.46700 95 ft 130 kts 301°
2026-04-17 01:11 -27.70559 -48.47602 110 ft 136 kts 301°
2026-04-17 01:11 -27.70075 -48.48537 132 ft 140 kts 301°
2026-04-17 01:11 -27.69561 -48.49485 144 ft 142 kts 302°
2026-04-17 01:11 -27.69032 -48.50424 162 ft 143 kts 302°
2026-04-17 01:12 -27.68546 -48.51404 135 ft 142 kts 299°
2026-04-17 01:12 -27.68074 -48.52350 82 ft 137 kts 300°
2026-04-17 01:12 -27.67647 -48.53147 25 ft 94 kts 301°
2026-04-17 01:12 -27.67496 -48.53416 25 ft 15 kts 303°
2026-04-17 01:13 -27.67419 -48.53552 25 ft 27 kts 302°
2026-04-17 01:13 -27.67301 -48.53766 25 ft 37 kts 302°
2026-04-17 01:13 -27.67173 -48.54002 25 ft 29 kts 301°
2026-04-17 01:13 -27.67086 -48.54162 25 ft 21 kts 301°
2026-04-17 01:14 -27.67018 -48.54287 25 ft 17 kts 301°
2026-04-17 01:14 -27.66960 -48.54392 25 ft 15 kts 301°
2026-04-17 01:14 -27.66902 -48.54499 25 ft 19 kts 301°
2026-04-17 01:14 -27.66817 -48.54657 25 ft 27 kts 301°
2026-04-17 01:15 -27.66731 -48.54801 25 ft 14 kts 319°
2026-04-17 01:15 -27.66689 -48.54812 25 ft 18 kts 13°
2026-04-17 01:15 -27.66555 -48.54731 25 ft 15 kts 29°
2026-04-17 01:15 -27.66497 -48.54739 25 ft 7 kts 304°
2026-04-17 01:16 -27.66450 -48.54816 25 ft 16 kts 307°
2026-04-17 01:16 -27.66392 -48.54898 25 ft 14 kts 309°
2026-04-17 01:16 -27.66340 -48.54989 25 ft 10 kts 269°
2026-04-17 01:16 -27.66360 -48.55053 25 ft 12 kts 248°
2026-04-17 01:17 -27.66394 -48.55137 25 ft 8 kts 232°
2026-04-17 01:17 -27.66434 -48.55166 25 ft 11 kts 201°
2026-04-17 01:17 -27.66568 -48.55201 25 ft 23 kts 191°
2026-04-17 01:17 -27.66712 -48.55234 25 ft 22 kts 191°
2026-04-17 01:18 -27.66843 -48.55263 25 ft 18 kts 191°
2026-04-17 01:18 -27.66963 -48.55290 25 ft 18 kts 191°
2026-04-17 01:18 -27.67040 -48.55338 25 ft 8 kts 240°
2026-04-17 01:18 -27.67067 -48.55429 25 ft 19 kts 255°
2026-04-17 01:19 -27.67109 -48.55608 25 ft 25 kts 254°
2026-04-17 01:19 -27.67159 -48.55772 25 ft 21 kts 248°
2026-04-17 01:19 -27.67220 -48.55920 25 ft 21 kts 240°
2026-04-17 01:19 -27.67294 -48.56057 25 ft 18 kts 237°
2026-04-17 01:20 -27.67347 -48.56146 25 ft 13 kts 235°
2026-04-17 01:20 -27.67416 -48.56255 25 ft 21 kts 234°
2026-04-17 01:20 -27.67492 -48.56368 25 ft 13 kts 230°
2026-04-17 01:20 -27.67542 -48.56436 25 ft 13 kts 230°
2026-04-17 01:21 -27.67562 -48.56467 25 ft 0 kts 252°
2026-04-17 01:21 -27.67561 -48.56478 25 ft 2 kts 300°
2026-04-17 01:21 -27.67545 -48.56496 25 ft 7 kts 322°
2026-04-17 01:21 -27.67542 -48.56499 25 ft 0 kts 322°